TimeCST,TemperatureF,Dew PointF,Humidity,Sea Level PressureIn,VisibilityMPH,Wind Direction,Wind SpeedMPH,Gust SpeedMPH,PrecipitationIn,Events,Conditions,WindDirDegrees,DateUTC
12:56 AM,36.0,14.0,41,30.20,10.0,NW,6.9,-,N/A,,Clear,310,2014-01-18 06:56:00
1:56 AM,30.9,17.1,57,30.22,10.0,WNW,4.6,-,N/A,,Clear,300,2014-01-18 07:56:00
2:56 AM,28.9,18.0,64,30.22,10.0,WNW,3.5,-,N/A,,Clear,300,2014-01-18 08:56:00
3:56 AM,27.0,18.0,69,30.23,10.0,NW,3.5,-,N/A,,Clear,320,2014-01-18 09:56:00
4:56 AM,26.1,18.0,71,30.24,10.0,Calm,Calm,-,N/A,,Clear,0,2014-01-18 10:56:00
5:56 AM,24.1,18.0,77,30.25,10.0,NNW,4.6,-,N/A,,Clear,340,2014-01-18 11:56:00
6:56 AM,24.1,19.0,81,30.25,10.0,Calm,Calm,-,N/A,,Clear,0,2014-01-18 12:56:00
7:56 AM,32.0,19.9,61,30.27,10.0,NW,3.5,-,N/A,,Clear,310,2014-01-18 13:56:00
8:56 AM,41.0,16.0,36,30.29,10.0,Variable,3.5,-,N/A,,Clear,0,2014-01-18 14:56:00
9:56 AM,46.9,7.0,20,30.30,10.0,North,8.1,-,N/A,,Clear,350,2014-01-18 15:56:00
10:56 AM,50.0,8.1,18,30.27,10.0,North,-9999.0,-,N/A,,Clear,0,2014-01-18 16:56:00
11:56 AM,52.0,7.0,16,30.22,10.0,NNW,5.8,-,N/A,,Clear,340,2014-01-18 17:56:00
12:56 PM,54.0,10.9,18,30.19,10.0,SSW,5.8,-,N/A,,Clear,200,2014-01-18 18:56:00
1:56 PM,55.0,12.0,18,30.16,10.0,WSW,8.1,-,N/A,,Clear,240,2014-01-18 19:56:00
2:56 PM,53.1,17.1,24,30.16,10.0,SSW,9.2,-,N/A,,Clear,200,2014-01-18 20:56:00
3:56 PM,52.0,23.0,32,30.16,10.0,South,10.4,-,N/A,,Clear,190,2014-01-18 21:56:00
4:56 PM,48.0,25.0,41,30.15,10.0,South,9.2,-,N/A,,Clear,190,2014-01-18 22:56:00
5:56 PM,43.0,26.1,51,30.14,10.0,SSW,3.5,-,N/A,,Clear,200,2014-01-18 23:56:00
6:56 PM,39.9,26.1,58,30.13,10.0,South,3.5,-,N/A,,Clear,170,2014-01-19 00:56:00
7:56 PM,43.0,27.0,53,30.13,10.0,SSW,4.6,-,N/A,,Clear,200,2014-01-19 01:56:00
8:56 PM,43.0,30.9,62,30.12,10.0,SSW,4.6,-,N/A,,Clear,200,2014-01-19 02:56:00
9:56 PM,46.9,36.0,66,30.11,10.0,SSW,4.6,-,N/A,,Clear,210,2014-01-19 03:56:00
10:56 PM,48.0,37.0,66,30.09,10.0,Variable,6.9,-,N/A,,Clear,0,2014-01-19 04:56:00
11:56 PM,48.9,37.9,66,30.08,10.0,WSW,4.6,-,N/A,,Clear,240,2014-01-19 05:56:00